Regional Weather Roundup
Issued by NWS

Home | Current Version | Previous Version | Text Only | Print | Product List | Glossary Off
Versions: 1 2 3 4 5 6 7 8 9 10 11 12 13 14 15 16 17 18 19 20 21 22 23 24 25 26 27 28 29 30 31 32 33 34 35 36 37 38 39 40 41 42 43 44 45 46 47 48 49 50

000
ASUS45 KPSR 160310
RWRAZ

ARIZONA REGIONAL HOURLY WEATHER ROUNDUP
NATIONAL WEATHER SERVICE PHOENIX AZ
800 PM MST TUE APR 15 2014

NOTE: FAIR INDICATES FEW OR NO CLOUDS BELOW 12,000 FEET WITH NO
SIGNIFICANT WEATHER AND/OR OBSTRUCTIONS TO VISIBILITY.

AZZ001>003-036-160400-
NORTHWEST ARIZONA

CITY           SKY/WX    TMP DP  RH WIND       PRES   REMARKS
BULLHEAD CITY  PTCLDY    79   7   6 CALM      29.73S
KINGMAN        PTCLDY    61  -6   6 S12       29.88R
$$

AZZ004>008-015-016-018-160400-
NORTH CENTRAL ARIZONA

CITY           SKY/WX    TMP DP  RH WIND       PRES   REMARKS
GRAND CANYON   PTCLDY    52  -9   8 SW6       29.99R
WILLIAMS       MOCLDY    52   0  11 SW9       30.08R
PRESCOTT       MOCLDY    60   1   9 SW6       29.94R
FLAGSTAFF      MOCLDY    48   8  19 SW3       30.02R
PAYSON         CLOUDY    61  12  15 CALM      29.97R
PAGE           CLEAR     71   6   8 W7        29.82R
$$

AZZ009>014-017-160400-
NORTHEAST ARIZONA

CITY           SKY/WX    TMP DP  RH WIND       PRES   REMARKS
WINSLOW        MOCLDY    62   8  12 SW13      29.91R
SAINT JOHNS    CLOUDY    61   5  10 SW13      29.94R
WINDOW ROCK    MOCLDY    48  -2  12 SW3       29.98R
SHOW LOW       CLOUDY    54   5  14 S9        30.02R
$$

AZZ023-160400-
GREATER PHOENIX AREA

CITY           SKY/WX    TMP DP  RH WIND       PRES   REMARKS
PHOENIX        PTCLDY    85   9   5 NW6       29.73R
BUCKEYE          N/A     75  23  14 CALM      29.74S
GLENDALE       PTCLDY    79  16   9 VRB3      29.75R
LUKE AFB       NOT AVBL
DEER VALLEY    CLEAR     77   3   5 CALM      29.75R
SCOTTSDALE     PTCLDY    79  14   8 CALM      29.77R
MESA-GATEWAY   CLEAR     75  16  10 N6        29.78R
CHANDLER       PTCLDY    81  12   7 VRB5      29.75R
$$

AZZ027-028-160400-
SOUTHWEST MARICOPA COUNTY AND PINAL COUNTY

CITY           SKY/WX    TMP DP  RH WIND       PRES   REMARKS
CASA GRANDE    CLEAR     73  16  11 NW6       29.77R
GILA BEND      CLEAR     79  10   7 SW5       29.74S
$$

AZZ503-504-507>509-160400-
SOUTHEAST ARIZONA

CITY           SKY/WX    TMP DP  RH WIND       PRES   REMARKS
TUCSON         CLEAR     78   7   6 NW5       29.83R
DAVIS-MONTHAN  CLEAR     77   9   7 NW8       29.82R
RYAN FIELD       N/A     75  12   9 NW6       29.82R
NOGALES        CLEAR     71   6   8 SW3       29.88R
SIERRA VISTA   PTCLDY    68   7   9 W14       29.93R
DOUGLAS        CLEAR     67   7   9 N9        29.88R
SAFFORD        CLEAR     65   4   9 E3        29.83R
$$

AZZ020-021-025-026-031-160400-
SOUTHWEST ARIZONA

CITY           SKY/WX    TMP DP  RH WIND       PRES   REMARKS
YUMA           PTCLDY    83  21  10 W6        29.70S
$$

CAZ031-033-041-043-047-048-061-160400-
SOUTHERN CALIFORNIA

CITY           SKY/WX    TMP DP  RH WIND       PRES   REMARKS
DOWNTOWN L.A.  MOCLDY    59  53  80 VRB3      29.85R
L.A. AIRPORT   MOCLDY    59  53  80 W16       29.86R
SAN DIEGO      CLOUDY    61  53  75 NW6       29.90R
BURBANK        CLEAR     70  49  47 SE6       29.83R
ONTARIO        PTCLDY    73  28  18 SW13      29.84R
RIVERSIDE      CLEAR     72  45  37 W9        29.83R
PALM SPRINGS   CLEAR     86  26  11 NW9       29.72R
EL CENTRO NAS  PTCLDY    81  25  12 S6        29.68S
IMPERIAL       CLEAR     83  22  10 CALM      29.68S
BLYTHE         CLEAR     80  20  10 E6        29.70S
NEEDLES        CLEAR     84   1   4 CALM      29.72S
$$

NVZ020-UTZ003-160400-
SOUTHERN NEVADA-UTAH

CITY           SKY/WX    TMP DP  RH WIND       PRES   REMARKS
LAS VEGAS      PTCLDY    77  13   9 S6        29.73F
SALT LAKE CITY CLOUDY    56  28  34 N12       29.87R
$$

NMZ009-TXZ055-160400-
NEW MEXICO-WEST TEXAS

CITY           SKY/WX    TMP DP  RH WIND       PRES   REMARKS
ALBUQUERQUE    MOCLDY    60   8  12 S20       29.92S
EL PASO        MOCLDY    64   4   9 SE6       29.94R
$$


........................KEY........................
SKY/WX - SKY CONDITION/WEATHER
TMP    - TEMPERATURE IN FAHRENHEIT
DP     - DEW POINT IN FAHRENHEIT
RH     - RELATIVE HUMIDITY IN PERCENT
WIND   - DIRECTION AND SPEED IN MILES PER HOUR (MPH)
VRB    - VARIABLE WIND DIRECTION
PRES   - MEAN SEA LEVEL PRESSURE IN INCHES OF MERCURY
         F - FALLING PRESSURE   R - RISING PRESSURE
         S - STEADY PRESSURE
VSB    - VISIBILITY IN MILES
HX     - HEAT INDEX IN FAHRENHEIT
WCI    - WIND CHILL INDEX IN FAHRENHEIT
TC     - TEMPERATURE IN CELSIUS WHICH IS ALSO KNOWN AS
         TEMPERATURE IN CENTIGRADE
AFB    - AIR FORCE BASE
         LUKE AFB IS LUKE AIR FORCE BASE
         DAVIS-MONTHAN IS DAVIS-MONTHAN AIR FORCE BASE
NAS    - NAVAL AIR STATION
         EL CENTRO NAS IS EL CENTRO NAVAL AIR STATION
N/A    - NOT AVAILABLE



USA.gov is the U.S. government's official web portal to all federal, state and local government web resources and services.